Regional Weather Roundup
Issued by NWS Kansas City/Pleasant Hill, MO

Home | Current Version | Previous Version | Text Only | Print | Product List | Glossary On
Versions: 1 2 3 4 5 6 7 8 9 10 11 12 13 14 15 16 17 18 19 20 21 22 23 24 25 26 27 28 29 30 31 32 33 34 35 36 37 38 39 40 41 42 43 44 45 46 47 48 49 50
000
ASUS43 KEAX 312310
RWREAX

WEATHER ROUNDUP FOR EASTERN KANSAS AND NORTHWEST MISSOURI
NATIONAL WEATHER SERVICE KANSAS CITY/PLEASANT HILL MO
600 PM CDT MON AUG 31 2015

KSZ040-057-103>105-MOZ028-029-037-043-010000-
...KANSAS CITY METROPOLITAN AREA...

CITY           SKY/WX    TMP DP  RH WIND       PRES   REMARKS
K.C. INTL      MOSUNNY   88  69  53 S12       29.94S HX  92
K.C. DOWNTOWN  SUNNY     90  69  50 S10       29.93S HX  94
LEES SUMMIT    MOSUNNY   87  68  52 S12       29.96S HX  90
OLATHE - IXD   SUNNY     86  70  58 S10       29.96S HX  90
OLATHE - OJC   SUNNY     84  70  62 S9        29.95S
LAWRENCE       SUNNY     88  70  55 S14       29.93S HX  93

$$

MOZ001>008-011>017-020>025-030>033-038>040-044>046-053-054-010000-
...NORTHERN AND CENTRAL MISSOURI...

CITY           SKY/WX    TMP DP  RH WIND       PRES   REMARKS
ST. JOSEPH     SUNNY     87  70  56 S9        29.92S HX  92
MOSBY          CLEAR     88  68  51 S7        29.94S HX  91
WARRENSBURG    SUNNY     88  68  51 S7        29.96R HX  91
WHITEMAN AFB   MOSUNNY   90  69  51 SW12      29.96R HX  94
CLINTON        SUNNY     90  72  55 S8        29.97S HX  96
SEDALIA        SUNNY     90  68  48 SW8       29.99R HX  94
WARSAW         NOT AVBL
CHILLICOTHE      N/A     89  71  55 S3        29.96R HX  95
KIRKSVILLE     SUNNY     86  70  58 S7        29.97S HX  90

$$

MOZ041-047>049-056>058-063>065-088>090-097-010000-
...EASTERN AND SOUTHERN MISSOURI...

CITY           SKY/WX    TMP DP  RH WIND       PRES   REMARKS
ST. LOUIS INTL PTSUNNY   83  71  67 SE13      30.02R
SPIRIT OF STL  PTSUNNY   85  74  69 SE5       29.99R HX  92
COLUMBIA       SUNNY     88  69  53 S8        29.99R HX  92
JEFFERSON CITY SUNNY     91  68  46 S7        29.97R HX  95
ROLLA          SUNNY     87  69  54 S9        30.02R HX  91
OSAGE BEACH    SUNNY     90  66  45 S8        30.01R HX  92
SPRINGFIELD    SUNNY     87  67  51 S12       30.02R HX  90
BRANSON        PTSUNNY   82  68  61 S5        30.05S
JOPLIN         SUNNY     87  68  52 S9        29.99S HX  90
WEST PLAINS    SUNNY     86  66  51 VRB6      30.06F

$$

IAZ060-094-KSZ022-034>040-054-083-096-NEZ052-066-093-010000-
...KANSAS...SOUTHEAST NEBRASKA AND IOWA...

CITY           SKY/WX    TMP DP  RH WIND       PRES   REMARKS
TOPEKA         SUNNY     88  69  53 SE12      29.92S HX  92
MANHATTAN      SUNNY     92  62  36 S9        29.89S HX  92
EMPORIA        SUNNY     88  68  51 S18       29.93S HX  91
CHANUTE        SUNNY     87  69  54 S14       29.96R HX  91
WICHITA        MOSUNNY   94  58  29 S7        29.90S HX  93
OMAHA          MOSUNNY   85  66  53 S12       29.91S
LINCOLN        SUNNY     87  70  56 S13       29.90S HX  92
FALLS CITY     SUNNY     89  69  51 S8        29.91S HX  93
LAMONI         SUNNY     85  70  60 S10       29.95S
DES MOINES     MOSUNNY   86  70  58 S12       29.93R HX  90

$$



USA.gov is the U.S. government's official web portal to all federal, state and local government web resources and services.